When you browse on this site, cookies collect data to enhance your experience and personalize the content and advertising you see.
Visit our Privacy Policy to learn more. By continuing to use the site, you agree to this use of cookies and data.
  • In Czech Republic
  • List of Countries
  • For 7 days
  • Water Temperature
  • Weather Map
  • Weather Widgets
  • user-avatar
    Login

    Hourly Weather Zheleznaya Borovina

    Today, 28 May, Thursday

    Time Temperature Precipitation Wind Pressure Humidity
    00:00 +10°C° 0 mm 0 mps 752 mmHg 86%
    01:00 +10°C° 0 mm 0 mps 752 mmHg 87%
    02:00 +11°C° 0 mm 1 mps 752 mmHg 86%
    03:00 +11°C° 0 mm 1 mps 752 mmHg 87%
    04:00 +11°C° 0 mm 1 mps 751 mmHg 87%
    05:00 +10°C° 0 mm 0 mps 751 mmHg 88%
    06:00 +12°C° 0 mm 0 mps 751 mmHg 81%
    07:00 +15°C° 0 mm 1 mps 751 mmHg 75%
    08:00 +18°C° 0 mm 1 mps 751 mmHg 69%
    09:00 +19°C° 0.2 mm 1 mps 751 mmHg 64%
    10:00 +19°C° 0.2 mm 2 mps 751 mmHg 58%
    11:00 +20°C° 0.2 mm 2 mps 751 mmHg 52%
    12:00 +20°C° 0.2 mm 3 mps 750 mmHg 53%
    13:00 +20°C° 0.2 mm 3 mps 750 mmHg 53%
    14:00 +20°C° 0 mm 3 mps 750 mmHg 52%
    15:00 +20°C° 0.2 mm 3 mps 750 mmHg 56%
    16:00 +19°C° 0.2 mm 3 mps 749 mmHg 61%
    17:00 +19°C° 0.2 mm 3 mps 749 mmHg 65%
    18:00 +17°C° 0.1 mm 3 mps 749 mmHg 72%
    19:00 +16°C° 0.1 mm 2 mps 749 mmHg 78%
    20:00 +14°C° 0.1 mm 2 mps 749 mmHg 85%
    21:00 +13°C° 0 mm 2 mps 748 mmHg 86%
    22:00 +13°C° 0 mm 2 mps 748 mmHg 88%
    23:00 +12°C° 0 mm 2 mps 747 mmHg 90%

    Tomorrow, 29 May, Friday

    Time Temperature Precipitation Wind Pressure Humidity
    00:00 +12°C° 0.6 mm 2 mps 747 mmHg 91%
    01:00 +11°C° 0.6 mm 3 mps 746 mmHg 92%
    02:00 +11°C° 0.6 mm 4 mps 746 mmHg 93%
    03:00 +11°C° 2.2 mm 4 mps 745 mmHg 93%
    04:00 +10°C° 2.2 mm 5 mps 745 mmHg 94%
    05:00 +10°C° 2.2 mm 5 mps 744 mmHg 94%
    06:00 +10°C° 0.5 mm 6 mps 744 mmHg 94%
    07:00 +10°C° 0.5 mm 6 mps 744 mmHg 93%
    08:00 +10°C° 0.5 mm 7 mps 744 mmHg 92%
    09:00 +10°C° 0.1 mm 7 mps 744 mmHg 91%
    10:00 +11°C° 0.1 mm 6 mps 744 mmHg 91%
    11:00 +11°C° 0.1 mm 6 mps 744 mmHg 90%
    12:00 +13°C° 0 mm 6 mps 744 mmHg 89%
    13:00 +12°C° 0 mm 7 mps 744 mmHg 87%
    14:00 +14°C° 0 mm 7 mps 743 mmHg 86%
    15:00 +14°C° 0.1 mm 7 mps 743 mmHg 85%
    16:00 +15°C° 0.1 mm 7 mps 743 mmHg 84%
    17:00 +15°C° 0.1 mm 7 mps 743 mmHg 83%
    18:00 +15°C° 0.4 mm 6 mps 743 mmHg 86%
    19:00 +14°C° 0.4 mm 6 mps 743 mmHg 88%
    20:00 +14°C° 0.4 mm 6 mps 742 mmHg 91%
    21:00 +14°C° 0.3 mm 5 mps 742 mmHg 92%
    22:00 +13°C° 0.3 mm 5 mps 742 mmHg 94%
    23:00 +13°C° 0.3 mm 5 mps 742 mmHg 95%

    Day after tomorrow, 30 May, Saturday

    Time Temperature Precipitation Wind Pressure Humidity
    00:00 +13°C° 0.1 mm 5 mps 742 mmHg 95%
    01:00 +13°C° 0.1 mm 4 mps 742 mmHg 95%
    02:00 +14°C° 0.1 mm 4 mps 742 mmHg 96%
    03:00 +14°C° 0.1 mm 4 mps 741 mmHg 96%
    04:00 +14°C° 0.1 mm 4 mps 741 mmHg 96%
    05:00 +14°C° 0.1 mm 4 mps 741 mmHg 96%
    06:00 +14°C° 0.6 mm 5 mps 741 mmHg 96%
    07:00 +15°C° 0.6 mm 5 mps 741 mmHg 96%
    08:00 +15°C° 0.6 mm 5 mps 741 mmHg 96%
    09:00 +15°C° 0.3 mm 6 mps 741 mmHg 95%
    10:00 +16°C° 0.3 mm 6 mps 740 mmHg 93%
    11:00 +16°C° 0.3 mm 7 mps 740 mmHg 92%
    12:00 +16°C° 0.7 mm 7 mps 740 mmHg 93%
    13:00 +15°C° 0.7 mm 7 mps 739 mmHg 93%
    14:00 +15°C° 0.7 mm 8 mps 738 mmHg 94%
    15:00 +15°C° 0.7 mm 8 mps 738 mmHg 93%
    16:00 +16°C° 0.7 mm 8 mps 737 mmHg 93%
    17:00 +16°C° 0.7 mm 8 mps 737 mmHg 92%
    18:00 +16°C° 0.5 mm 9 mps 737 mmHg 91%
    19:00 +16°C° 0.5 mm 9 mps 737 mmHg 91%
    20:00 +16°C° 0.5 mm 9 mps 737 mmHg 90%
    21:00 +16°C° 1.9 mm 8 mps 737 mmHg 91%
    22:00 +15°C° 1.9 mm 8 mps 737 mmHg 92%
    23:00 +15°C° 1.9 mm 7 mps 737 mmHg 94%

    31 May, Sunday

    Time Temperature Precipitation Wind Pressure Humidity
    00:00 +14°C° 0.8 mm 5 mps 738 mmHg 95%
    01:00 +13°C° 0.8 mm 4 mps 738 mmHg 96%
    02:00 +12°C° 0.8 mm 3 mps 739 mmHg 97%
    03:00 +12°C° 0.3 mm 3 mps 739 mmHg 97%
    04:00 +12°C° 0.3 mm 3 mps 740 mmHg 97%
    05:00 +13°C° 0.3 mm 2 mps 740 mmHg 97%
    06:00 +13°C° 0.6 mm 3 mps 741 mmHg 96%
    07:00 +13°C° 0.6 mm 3 mps 741 mmHg 94%
    08:00 +14°C° 0.6 mm 3 mps 742 mmHg 93%
    09:00 +14°C° 0.3 mm 4 mps 742 mmHg 91%
    10:00 +15°C° 0.3 mm 5 mps 743 mmHg 90%
    11:00 +15°C° 0.3 mm 6 mps 743 mmHg 89%
    12:00 +15°C° 0.3 mm 6 mps 743 mmHg 89%
    13:00 +14°C° 0.3 mm 7 mps 744 mmHg 89%
    14:00 +12°C° 0.3 mm 7 mps 744 mmHg 88%
    15:00 +13°C° 0.1 mm 6 mps 744 mmHg 88%
    16:00 +13°C° 0.1 mm 6 mps 745 mmHg 87%
    17:00 +13°C° 0.1 mm 6 mps 745 mmHg 86%
    18:00 +13°C° 0 mm 5 mps 745 mmHg 85%
    19:00 +13°C° 0 mm 5 mps 746 mmHg 84%
    20:00 +13°C° 0 mm 4 mps 746 mmHg 84%
    21:00 +12°C° 0 mm 4 mps 747 mmHg 85%
    22:00 +11°C° 0 mm 4 mps 747 mmHg 87%
    23:00 +11°C° 0 mm 4 mps 748 mmHg 89%

    1 June, Monday

    Time Temperature Precipitation Wind Pressure Humidity
    00:00 +10°C° 0 mm 4 mps 748 mmHg 90%
    01:00 +10°C° 0 mm 4 mps 748 mmHg 90%
    02:00 +8°C° 0 mm 4 mps 749 mmHg 91%
    03:00 +8°C° 0 mm 4 mps 749 mmHg 90%
    04:00 +8°C° 0 mm 4 mps 749 mmHg 89%
    05:00 +8°C° 0 mm 4 mps 750 mmHg 88%
    06:00 +10°C° 0 mm 4 mps 750 mmHg 83%
    07:00 +12°C° 0 mm 5 mps 750 mmHg 78%
    08:00 +13°C° 0 mm 5 mps 751 mmHg 73%
    09:00 +14°C° 0 mm 5 mps 751 mmHg 68%
    10:00 +15°C° 0 mm 5 mps 751 mmHg 62%
    11:00 +16°C° 0 mm 6 mps 751 mmHg 57%
    12:00 +16°C° 0 mm 6 mps 751 mmHg 57%
    13:00 +16°C° 0 mm 5 mps 751 mmHg 57%
    14:00 +17°C° 0 mm 5 mps 751 mmHg 57%
    15:00 +17°C° 0 mm 5 mps 751 mmHg 59%
    16:00 +17°C° 0 mm 4 mps 751 mmHg 62%
    17:00 +17°C° 0 mm 4 mps 751 mmHg 65%
    18:00 +16°C° 0 mm 3 mps 751 mmHg 71%
    19:00 +14°C° 0 mm 2 mps 751 mmHg 77%
    20:00 +13°C° 0 mm 1 mps 751 mmHg 83%
    21:00 +12°C° 0 mm 1 mps 751 mmHg 85%
    22:00 +12°C° 0 mm 1 mps 751 mmHg 88%
    23:00 +11°C° 0 mm 1 mps 751 mmHg 91%

    2 June, Tuesday

    Time Temperature Precipitation Wind Pressure Humidity
    00:00 +11°C° 0 mm 1 mps 751 mmHg 92%
    01:00 +10°C° 0 mm 1 mps 751 mmHg 92%
    02:00 +10°C° 0 mm 1 mps 750 mmHg 93%
    03:00 +9°C° 0 mm 2 mps 750 mmHg 93%
    04:00 +9°C° 0 mm 2 mps 750 mmHg 93%
    05:00 +10°C° 0 mm 2 mps 750 mmHg 92%
    06:00 +12°C° 0 mm 3 mps 750 mmHg 85%
    07:00 +14°C° 0 mm 3 mps 750 mmHg 78%
    08:00 +17°C° 0 mm 4 mps 750 mmHg 71%
    09:00 +18°C° 0.2 mm 4 mps 750 mmHg 70%
    10:00 +18°C° 0.2 mm 4 mps 750 mmHg 68%
    11:00 +19°C° 0.2 mm 4 mps 750 mmHg 67%
    12:00 +19°C° 0.3 mm 4 mps 749 mmHg 68%
    13:00 +19°C° 0.3 mm 5 mps 749 mmHg 69%
    14:00 +19°C° 0.3 mm 5 mps 749 mmHg 70%
    15:00 +19°C° 0 mm 5 mps 749 mmHg 69%
    16:00 +19°C° 0 mm 4 mps 748 mmHg 68%
    17:00 +19°C° 0 mm 4 mps 748 mmHg 68%
    18:00 +17°C° 0 mm 3 mps 748 mmHg 75%
    19:00 +16°C° 0 mm 2 mps 748 mmHg 81%
    20:00 +14°C° 0 mm 2 mps 748 mmHg 88%
    21:00 +13°C° 0 mm 1 mps 748 mmHg 89%
    22:00 +12°C° 0 mm 1 mps 748 mmHg 91%
    23:00 +11°C° 0 mm 1 mps 748 mmHg 92%
    Show more